Preview of NWS' New Version of Forecast
This preview is not operational and should not be used for support decisions.

Regional Weather Roundup (RWR)

Issued by National Weather Service (NWS)

                            
000
ASUS43 KLSX 211157
RWRMO 

WEATHER SUMMARY FOR MISSOURI
NATIONAL WEATHER SERVICE SPRINGFIELD MO
700 AM CDT SUN JUL 21 2019

NOTE: "FAIR" INDICATES FEW OR NO CLOUDS BELOW 12,000 FEET WITH NO
       SIGNIFICANT WEATHER AND/OR OBSTRUCTIONS TO VISIBILITY.
       CURRENT SKY AND/OR WEATHER CONDITIONS ARE NOT AVAILABLE FOR
       CHILLICOTHE AND FARMINGTON.

MOZ001>031-035>038-043-044-053-054-211300-
...NORTHERN AND WESTERN MISSOURI...
  
CITY           SKY/WX    TMP DP  RH WIND       PRES   REMARKS
KANSAS CTY INT DRIZZLE   70  69  97 SW9       30.01F                  
6HR MIN TEMP:  70; 6HR MAX TEMP:  76; 6HR PCP:  0.47;                

LEE'S SUMMIT   LGT RAIN  71  67  87 SW8       30.02R                  
6HR MIN TEMP:  69; 6HR MAX TEMP:  71; 6HR PCP:  3.27;                

ST JOSEPH      LGT RAIN  72  69  90 SW15      29.99R                  
6HR MIN TEMP:  71; 6HR MAX TEMP:  75; 6HR PCP:  0.30;                

CHILLICOTHE      N/A     72  69  90 N7        29.98R                  
6HR MIN TEMP:  71; 6HR MAX TEMP:  73; 6HR PCP:  0.67;                

KIRKSVILLE     CLOUDY    71  69  93 NE5       29.95R                  
     
$$
MOZ066>068-077>081-088>096-101>105-211300-
...SOUTHWEST MISSOURI...
  
CITY           SKY/WX    TMP DP  RH WIND       PRES   REMARKS
SPRINGFIELD    PTCLDY    75  70  84 CALM      30.00R                  
6HR MIN TEMP:  74; 6HR MAX TEMP:  79;                                

JOPLIN         CLEAR     74  71  91 SE5       29.99R                  
6HR MIN TEMP:  73; 6HR MAX TEMP:  80;                                

               
$$
MOZ032>034-039>042-045>050-055>058-069>072-211300-
...CENTRAL MISSOURI...  
  
CITY           SKY/WX    TMP DP  RH WIND       PRES   REMARKS
COLUMBIA       NOT AVBL                                               
ROLLA          CLEAR     71  68  90 SW7       29.96R                  
6HR MIN TEMP:  70; 6HR MAX TEMP:  80;                                

SEDALIA        LGT RAIN  68  68 100 W8        29.97F                  
6HR MIN TEMP:  68; 6HR MAX TEMP:  69; 6HR PCP:  0.38;                

WARRENSBURG    LGT RAIN  68  68 100 SW9       29.99R                  
               
$$
MOZ051-052-059>065-211300-
...EAST CENTRAL MISSOURI...
  
CITY           SKY/WX    TMP DP  RH WIND       PRES   REMARKS
ST LOUIS INTL  PTSUNNY   79  69  71 W8        29.90F                  
6HR MIN TEMP:  78; 6HR MAX TEMP:  84;                                

                   
$$
MOZ072>076-082>087-097>100-106>115-211300-
...SOUTH CENTRAL AND SOUTHEAST MISSOURI...
  
CITY           SKY/WX    TMP DP  RH WIND       PRES   REMARKS
CAPE GIRARDEAU FAIR      78  75  90 CALM      29.94S FOG              
6HR MIN TEMP:  78; 6HR MAX TEMP:  80;                                

POPLAR BLUFF   CLOUDY    78  78 100 SW8       29.96R FOG              
6HR MIN TEMP:  77; 6HR MAX TEMP:  80;                                

WEST PLAINS    CLEAR     74  72  93 SW3       30.01R FOG              
6HR MIN TEMP:  73; 6HR MAX TEMP:  79;                                

                                       
$$